Hourly Data Report for January 26, 2022

TORONTO CITY
ONTARIO
Current Station Operator: ECCC - MSC

43°40'00.000" N
79°24'00.000" W
112.50 m
6158355
71508
XTO

Download Data

Hourly Data (January 2022)
Hourly Data Report for January 26, 2022
TIME
LST
Temp Definition
°C
Dew Point Definition
°C
Rel Hum Definition
%
Precip. Amount Definition
mm

Wind Dir Definition
10's deg

Wind Spd Definition
km/h
Visibility Definition
km
Stn Press Definition
kPa
Hmdx Definition


Wind Chill Definition


Weather Definition


00:00 -11.4 -16.9 64 0.0       101.09     LegendNANA
01:00 -11.6 -16.5 67 0.0       101.08     LegendNANA
02:00 -11.5 -17.3 62 0.0       101.09     LegendNANA
03:00 -11.9 -16.9 66 0.0       101.12     LegendNANA
04:00 -12.3 -17.0 68 0.0       101.14     LegendNANA
05:00 -12.8 -18.4 62 0.0       101.19     LegendNANA
06:00 -13.5 -18.8 64 0.0       101.26     LegendNANA
07:00 -13.9 -19.5 63 0.0       101.38     LegendNANA
08:00 -13.9 -18.8 67 0.0       101.45     LegendNANA
09:00 -13.6 -17.1 75 0.0       101.54     LegendNANA
10:00 -12.8 -16.4 74 0.0       101.57     LegendNANA
11:00 -11.7 -16.7 66 0.0       101.61     LegendNANA
12:00 -10.3 -16.5 60 0.0       101.58     LegendNANA
13:00 -9.6 -17.0 55 0.0       101.55     LegendNANA
14:00 -9.3 -14.8 64 0.0       101.51     LegendNANA
15:00 -9.1 -13.4 71 0.0       101.49     LegendNANA
16:00 -9.0 -12.8 74 0.0       101.49     LegendNANA
17:00 -9.2 -12.2 79 0.0       101.49     LegendNANA
18:00 -9.8 -12.2 82 0.1       101.48     LegendNANA
19:00 -9.4 -12.3 79 0.0       101.48     LegendNANA
20:00 -9.3 -12.7 76 0.0       101.46     LegendNANA
21:00 -9.5 -15.4 62 0.0       101.43     LegendNANA
22:00 -9.6 -16.3 58 0.0       101.38     LegendNANA
23:00 -9.6 -15.7 61 0.0       101.33     LegendNANA

Notes on Data Quality.

Legend

  • E = Estimated
  • M = Missing
  • NA = Not Available*
  • [empty] = Indicates an unobserved value
Date modified: